Location: Larkspur
(54.4391°N, 113.7691°W)
Time: 00:50:41
(UTC+00:00)

YUBILEINY - Pass Details

Date: 07 December 2023
Orbit: 1479 x 1508 km, 82.5° (Epoch: 03 March)

Event Time Altitude Azimuth Distance (km) Brightness Sun altitude
Rises 02:20:49 0° 345° (NNW) 4,636 ? -26.0°
Reaches altitude 10° 02:23:58 10° 353° (N) 3,649 ? -26.5°
Enters shadow 02:31:32 43° 51° (NE) 1,987 ? -27.6°
